Paducah, KY

1:34 AM CDT on September 25, 2017 (GMT -0500)
Barkley Regional

Weather History for KPAH - March, 2014

Change the Weather History Date:

Saturday, March 29, 2014

  Actual Average Record
Temperature  
Mean Temperature 43 °F 52 °F  
Max Temperature 48 °F 64 °F 83 °F (2007)
Min Temperature 38 °F 41 °F 20 °F (1947)
Degree Days  
Heating Degree Days 22 13  
Month to date heating degree days 617 498  
Since 1 July heating degree days 4272 3794  
Cooling Degree Days 0 0  
Month to date cooling degree days 0 0  
Year to date cooling degree days 0 0  
Moisture  
Dew Point 40 °F    
Average Humidity 79    
Maximum Humidity 92    
Minimum Humidity 65    
Precipitation  
Precipitation 0.34 in 0.14 in 1.47 in (1981)
Month to date precipitation 3.65 3.63  
Year to date precipitation 8.83 11.22  
Snow  
Snow 0.00 in 0.00 in T in (2002)
Month to date snowfall 5.6 0.6  
Since 1 July snowfall 18.5 9.1  
Snow Depth 0.00 in    
Sea Level Pressure  
Sea Level Pressure 30.07 in    
Wind  
Wind Speed 12 mph (North)    
Max Wind Speed 21 mph    
Max Gust Speed 28 mph    
Visibility 5 miles    
Events Rain    
T = Trace of Precipitation, MM = Missing Value Source: NWS Daily Summary

Daily Weather History Graph

Daily Weather History Graph

Search for Another Location

Airport or City:

Trip Planner

Search our weather history database for the weather conditions in past years. The results will help you decide how hot, cold, wet, or windy it might be!

Date:

Astronomy

Mar. 29, 2014 Rise Set
Actual Time 6:45 AM CDT 7:14 PM CDT
Civil Twilight 6:19 AM CDT 7:41 PM CDT
Nautical Twilight 5:48 AM CDT 8:11 PM CDT
Astronomical Twilight 5:17 AM CDT 8:43 PM CDT
Moon 5:52 AM CDT (3/29) 6:20 PM CDT (3/29)
Length of Visible Light 13h 21m
Length of Day
12h 29m
Waning Crescent, 2% of the Moon is Illuminated
Mar 29
Waning Crescent
Mar 30
New
Apr 7
First Quarter
Apr 15
Full
Apr 22
Last Quarter

Hourly Weather History & Observations

Time (CDT) Temp. Windchill Dew Point Humidity Pressure Visibility Wind Dir Wind Speed Gust Speed Precip Events Conditions
12:21 AM 48.9 °F - 46.0 °F 90% 30.00 in 4.0 mi NNE 12.7 mph - 0.06 in Rain Rain
12:38 AM 48.9 °F - 45.0 °F 86% 29.99 in 4.0 mi NNE 13.8 mph - 0.09 in Rain Light Rain
12:53 AM 48.0 °F - 45.0 °F 89% 29.98 in 5.0 mi NE 15.0 mph - 0.10 in Rain Light Rain
1:02 AM 48.0 °F - 45.0 °F 89% 29.98 in 6.0 mi NE 16.1 mph 23.0 mph 0.00 in Rain Light Rain
1:53 AM 48.0 °F - 44.1 °F 86% 29.98 in 4.0 mi North 9.2 mph - 0.00 in Rain Light Rain
2:03 AM 48.0 °F - 44.1 °F 86% 29.98 in 4.0 mi North 9.2 mph - 0.02 in Rain Light Rain
2:30 AM 46.9 °F - 44.1 °F 90% 29.96 in 5.0 mi North 13.8 mph - 0.02 in Rain Light Rain
2:46 AM 46.9 °F - 44.1 °F 90% 29.96 in 5.0 mi North 9.2 mph - 0.02 in   Overcast
2:53 AM 46.9 °F - 44.1 °F 90% 29.95 in 5.0 mi NNE 12.7 mph - 0.02 in   Overcast
3:40 AM 46.9 °F - 43.0 °F 86% 29.94 in 3.0 mi North 15.0 mph - 0.02 in Rain Light Rain
3:53 AM 46.0 °F 40.6 °F 43.0 °F 89% 29.94 in 3.0 mi North 11.5 mph - 0.04 in Rain Light Rain
4:00 AM 46.0 °F 40.6 °F 44.1 °F 93% 29.94 in 2.5 mi North 11.5 mph - 0.01 in Rain Rain
4:51 AM 46.4 °F 41.1 °F 42.8 °F 87% 29.95 in 3.0 mi North 11.5 mph - 0.07 in Rain Light Rain
4:53 AM 46.0 °F 40.6 °F 43.0 °F 89% 29.95 in 3.0 mi North 11.5 mph - 0.07 in Rain Light Rain
5:53 AM 45.0 °F 40.1 °F 43.0 °F 93% 29.97 in 3.0 mi North 9.2 mph - 0.10 in Rain Light Rain
6:53 AM 45.0 °F 39.3 °F 42.1 °F 90% 30.00 in 4.0 mi NNW 11.5 mph - 0.05 in Rain Light Rain
7:53 AM 45.0 °F 38.9 °F 42.1 °F 90% 30.04 in 4.0 mi NNW 12.7 mph - 0.03 in Rain Light Rain
8:53 AM 45.0 °F 38.9 °F 41.0 °F 86% 30.06 in 6.0 mi NNW 12.7 mph - 0.03 in   Overcast
9:53 AM 46.0 °F 39.6 °F 41.0 °F 83% 30.09 in 5.0 mi NNW 15.0 mph 23.0 mph N/A   Haze
10:41 AM 46.0 °F 39.6 °F 39.9 °F 79% 30.09 in 6.0 mi NNW 15.0 mph 24.2 mph N/A   Haze
10:53 AM 46.0 °F 38.3 °F 39.0 °F 76% 30.10 in 7.0 mi North 20.7 mph 25.3 mph N/A   Overcast
11:53 AM 46.0 °F 39.3 °F 37.9 °F 73% 30.12 in 8.0 mi NNW 16.1 mph 25.3 mph N/A   Overcast
12:53 PM 46.0 °F 39.3 °F 37.0 °F 71% 30.11 in 9.0 mi NNW 16.1 mph 26.5 mph N/A   Overcast
1:53 PM 46.0 °F 39.0 °F 37.0 °F 71% 30.12 in 8.0 mi NNW 17.3 mph 24.2 mph N/A   Overcast
2:53 PM 46.0 °F 40.6 °F 37.0 °F 71% 30.14 in 6.0 mi NNW 11.5 mph 20.7 mph N/A   Haze
3:53 PM 46.0 °F 39.6 °F 37.0 °F 71% 30.15 in 5.0 mi NNW 15.0 mph 23.0 mph N/A   Haze
4:53 PM 45.0 °F 39.7 °F 36.0 °F 71% 30.18 in 5.0 mi NW 10.4 mph 23.0 mph N/A   Haze
5:53 PM 45.0 °F 38.2 °F 36.0 °F 71% 30.20 in 6.0 mi North 15.0 mph - N/A   Haze
6:53 PM 44.1 °F 37.4 °F 35.1 °F 71% 30.23 in 6.0 mi NNW 13.8 mph 23.0 mph N/A   Haze
7:53 PM 44.1 °F 38.1 °F 34.0 °F 68% 30.24 in 6.0 mi North 11.5 mph - N/A   Haze
8:53 PM 43.0 °F 36.0 °F 33.1 °F 68% 30.27 in 6.0 mi NNW 13.8 mph - N/A   Haze
9:53 PM 43.0 °F 37.2 °F 33.1 °F 68% 30.27 in 7.0 mi NNW 10.4 mph - N/A   Overcast
10:53 PM 42.1 °F 40.2 °F 32.0 °F 67% 30.26 in 7.0 mi NNW 3.5 mph - N/A   Overcast
11:53 PM 39.9 °F 35.8 °F 32.0 °F 73% 30.25 in 6.0 mi NNW 5.8 mph - N/A   Haze